Flag for USA

Past Weather in Old Washington Historic State Park, Arkansas, USA — Yesterday and Last 2 Weeks

Now
88 °F

Passing clouds.


Feels Like: 96 °F
Forecast: 94 / 77 °F
Wind: 7 mph from West

Location: Texarkana Regional-Webb Field

Current Time: Jul 10, 2020 at 11:50:06 am

Latest Report: Jul 10, 2020 at 10:53 am


Visibility: 10 mi

Pressure: 30.04 "Hg

Humidity: 61%

Dew Point: 73 °F

Location of Old Washington Historic State ParkLocation

Past Weather in Old Washington Historic State Park — Graph

°F

Old Washington Historic State Park Temperature Yesterday

Maximum temperature yesterday: 90 °F (at 3:53 pm)
Minimum temperature yesterday: 77 °F (at 5:53 am)
Average temperature yesterday: 83 °F

High & Low Weather Summary for the Past Weeks

 TemperatureHumidityPressure
High93 °F (Jul 2, 4:53 pm)100% (Jun 26, 4:41 pm)30.15 "Hg (Jun 26, 4:41 pm)
Low70 °F (Jun 26, 8:53 pm)52% (Jun 30, 2:53 pm)29.80 "Hg (Jun 28, 4:53 pm)
Average79 °F83%29.93 "Hg
* Reported Jun 25 9:09 am — Jul 10 9:53 am, Old Washington Historic State Park. Weather by CustomWeather, © 2020

Note: Actual official high and low records may vary slightly from our data, if they occured in-between our weather recording intervals... More about our weather records

Old Washington Historic State Park Weather History for the Previous 24 Hours

Scroll right to see more
 ConditionsComfort  
Time TempWeatherWind HumidityBarometerVisibility
9:53 am
Fri, Jul 10
85 °FOvercast.10 mph70%30.04 "Hg10 mi
8:53 am84 °FSunny.10 mph74%30.01 "Hg10 mi
7:53 am81 °FSunny.8 mph85%30.00 "Hg6 mi
6:53 am78 °FFog.6 mph90%29.99 "Hg6 mi
5:53 am77 °FClear.6 mph94%29.98 "Hg7 mi
4:53 am77 °FClear.3 mph90%29.96 "Hg7 mi
3:53 am76 °FFog.3 mph97%29.94 "Hg6 mi
2:53 am77 °FClear.No wind94%29.93 "Hg7 mi
1:53 am77 °FClear.No wind94%29.93 "Hg9 mi
12:53 am78 °FClear.3 mph90%29.93 "Hg9 mi
11:53 pm
Thu, Jul 9
81 °FClear.5 mph85%29.91 "Hg10 mi
10:53 pm80 °FClear.6 mph87%29.90 "Hg10 mi
9:53 pm79 °FClear.No wind90%29.88 "Hg10 mi
8:53 pm80 °FClear.No wind87%29.88 "Hg10 mi
7:53 pm86 °FSunny.7 mph72%29.88 "Hg10 mi
6:53 pm88 °FPassing clouds.5 mph67%29.89 "Hg10 mi
5:53 pm88 °FMostly cloudy.3 mph65%29.89 "Hg10 mi
4:53 pm89 °FScattered clouds.8 mph61%29.88 "Hg10 mi
3:53 pm90 °FPassing clouds.10 mph57%29.88 "Hg10 mi
2:53 pm89 °FPassing clouds.No wind59%29.92 "Hg10 mi
2:25 pm87 °FBroken clouds.5 mph65%29.94 "Hg10 mi
2:11 pm88 °FPartly sunny.8 mph63%29.94 "Hg10 mi
1:53 pm87 °FMostly cloudy.3 mph65%29.94 "Hg10 mi
12:53 pm87 °FOvercast.9 mph65%29.93 "Hg10 mi
11:53 am84 °FOvercast.8 mph72%29.93 "Hg10 mi
Weather by CustomWeather, © 2020

See weather overview